Weather History for Manteo, NC

Change the Weather History Date:

Friday, March 1, 2013

  Actual Average Record
Temperature  
Mean Temperature 46 °F -  
Max Temperature 52 °F 53 °F 77 °F (2012)
Min Temperature 40 °F 40 °F 18 °F (1978)
Degree Days  
Heating Degree Days 20    
Moisture  
Dew Point 33 °F    
Average Humidity 64    
Maximum Humidity 82    
Minimum Humidity 47    
Precipitation  
Precipitation 0.00 in - - ()
Sea Level Pressure  
Sea Level Pressure 29.83 in    
Wind  
Wind Speed 8 mph (NW)    
Max Wind Speed 12 mph    
Max Gust Speed 20 mph    
Visibility 10 miles    
Events      
Averages and records for this station are not official NWS values.
T = Trace of Precipitation, MM = Missing Value Source: NWS Daily Summary

Daily Weather History Graph

Daily Weather History Graph

Search for Another Location

Airport:

Trip Planner

Search our weather history database for the weather conditions in past years. The results will help you decide how hot, cold, wet, or windy it might be!

Date:

Astronomy

Mar. 01, 2013 Rise Set
Actual Time 6:32 AM EST 5:58 PM EST
Civil Twilight 6:06 AM EST 6:23 PM EST
Nautical Twilight 5:37 AM EST 6:53 PM EST
Astronomical Twilight 5:07 AM EST 7:23 PM EST
Moon 10:18 PM EST (3/1) 8:27 AM EST (3/1)
Length of Visible Light 12h 16m
Length of Day
11h 25m
Waning Gibbous, 83% of the Moon is Illuminated
Mar 1
Waning Gibbous
Mar 4
Last Quarter
Mar 11
New
Mar 19
First Quarter
Mar 27
Full

Hourly Weather History & Observations

Time (EST) Temp. Windchill Dew Point Humidity Pressure Visibility Wind Dir Wind Speed Gust Speed Precip Events Conditions
12:15 AM 43.5 °F 37.5 °F 32.0 °F 64% 29.78 in 10.0 mi WNW 11.5 mph - N/A   Clear
12:35 AM 43.0 °F 38.2 °F 31.5 °F 64% 29.79 in 10.0 mi NW 8.1 mph 19.6 mph N/A   Clear
12:55 AM 42.8 °F 36.6 °F 31.5 °F 64% 29.79 in 10.0 mi NW 11.5 mph 18.4 mph N/A   Clear
1:15 AM 42.8 °F 37.5 °F 31.3 °F 64% 29.78 in 10.0 mi NW 9.2 mph - N/A   Clear
1:35 AM 42.3 °F 37.3 °F 30.9 °F 64% 29.79 in 10.0 mi NW 8.1 mph 18.4 mph N/A   Clear
2:15 AM 41.9 °F 37.5 °F 31.1 °F 66% 29.79 in 10.0 mi NW 6.9 mph 16.1 mph N/A   Clear
2:35 AM 41.9 °F 36.3 °F 31.1 °F 66% 29.78 in 10.0 mi WNW 9.2 mph - N/A   Clear
2:55 AM 41.5 °F 36.4 °F 31.1 °F 66% 29.78 in 10.0 mi NW 8.1 mph - N/A   Clear
3:55 AM 41.0 °F 35.8 °F 31.8 °F 70% 29.79 in 10.0 mi WNW 8.1 mph 18.4 mph N/A   Clear
4:35 AM 41.0 °F 35.2 °F 31.5 °F 69% 29.79 in 10.0 mi NW 9.2 mph 16.1 mph N/A   Clear
4:55 AM 41.0 °F 35.2 °F 31.3 °F 68% 29.80 in 10.0 mi NW 9.2 mph 16.1 mph N/A   Clear
5:15 AM 40.8 °F 35.6 °F 31.5 °F 69% 29.80 in 10.0 mi NW 8.1 mph - N/A   Clear
5:35 AM 40.5 °F 36.5 °F 32.0 °F 72% 29.81 in 10.0 mi WNW 5.8 mph - N/A   Clear
5:55 AM 40.5 °F 35.1 °F 32.0 °F 72% 29.82 in 10.0 mi NW 8.1 mph - N/A   Clear
6:15 AM 40.5 °F 35.8 °F 32.0 °F 72% 29.81 in 10.0 mi WNW 6.9 mph - N/A   Clear
6:35 AM 40.3 °F 37.1 °F 32.0 °F 72% 29.81 in 10.0 mi NW 4.6 mph - N/A   Clear
6:55 AM 40.3 °F 34.9 °F 32.0 °F 72% 29.82 in 10.0 mi NW 8.1 mph - N/A   Clear
7:15 AM 40.3 °F 33.9 °F 32.0 °F 72% 29.83 in 10.0 mi NW 10.4 mph - N/A   Clear
7:35 AM 41.7 °F 35.6 °F 32.5 °F 70% 29.83 in 10.0 mi NW 10.4 mph 16.1 mph N/A   Clear
7:55 AM 42.8 °F 38.0 °F 32.9 °F 68% 29.84 in 10.0 mi WNW 8.1 mph - N/A   Clear
8:15 AM 43.7 °F 39.7 °F 32.9 °F 66% 29.85 in 10.0 mi NW 6.9 mph - N/A   Clear
8:35 AM 44.2 °F 39.2 °F 32.5 °F 63% 29.84 in 10.0 mi NNW 9.2 mph - N/A   Clear
8:55 AM 44.6 °F 39.2 °F 33.1 °F 64% 29.84 in 10.0 mi NW 10.4 mph 17.3 mph N/A   Clear
9:15 AM 45.1 °F 40.8 °F 33.4 °F 64% 29.84 in 10.0 mi NW 8.1 mph - N/A   Clear
9:35 AM 45.5 °F 39.9 °F 32.9 °F 61% 29.83 in 10.0 mi NW 11.5 mph - N/A   Clear
9:55 AM 45.7 °F 41.0 °F 32.9 °F 61% 29.83 in 10.0 mi NNW 9.2 mph - N/A   Clear
10:15 AM 46.0 °F 42.5 °F 33.3 °F 61% 29.84 in 10.0 mi NW 6.9 mph 16.1 mph N/A   Clear
10:35 AM 47.5 °F - 33.4 °F 58% 29.84 in 10.0 mi NW 11.5 mph 16.1 mph N/A   Clear
10:55 AM 48.4 °F - 33.6 °F 57% 29.83 in 10.0 mi WNW 10.4 mph 16.1 mph N/A   Clear
11:15 AM 48.6 °F - 32.9 °F 55% 29.83 in 10.0 mi WNW 10.4 mph - N/A   Clear
11:35 AM 48.7 °F - 32.9 °F 54% 29.83 in 10.0 mi NW 8.1 mph - N/A   Clear
12:15 PM 50.4 °F - 32.7 °F 51% 29.83 in 10.0 mi NNW 9.2 mph - N/A   Clear
12:35 PM 50.9 °F - 32.7 °F 50% 29.83 in 10.0 mi NW 8.1 mph - N/A   Scattered Clouds
12:55 PM 48.9 °F - 31.8 °F 52% 29.82 in 10.0 mi WNW 10.4 mph - N/A   Mostly Cloudy
1:15 PM 51.3 °F - 32.2 °F 48% 29.81 in 10.0 mi NW 9.2 mph - N/A   Mostly Cloudy
1:35 PM 49.8 °F - 30.6 °F 48% 29.81 in 10.0 mi NW 6.9 mph - N/A   Overcast
1:55 PM 48.9 °F - 30.2 °F 48% 29.81 in 10.0 mi NNW 5.8 mph - N/A   Overcast
2:15 PM 48.9 °F - 29.7 °F 47% 29.81 in 10.0 mi WNW 6.9 mph - N/A   Overcast
2:35 PM 49.1 °F - 30.2 °F 48% 29.81 in 10.0 mi NW 8.1 mph - N/A   Overcast
2:55 PM 49.1 °F - 30.7 °F 49% 29.81 in 10.0 mi NW 6.9 mph - N/A   Overcast
3:15 PM 48.4 °F - 31.1 °F 51% 29.81 in 10.0 mi NNW 4.6 mph - N/A   Overcast
3:35 PM 48.2 °F - 30.2 °F 50% 29.81 in 10.0 mi NW 4.6 mph - N/A   Overcast
3:55 PM 46.6 °F - 34.2 °F 62% 29.81 in 10.0 mi NE 5.8 mph - N/A   Overcast
4:15 PM 45.9 °F 41.7 °F 34.5 °F 65% 29.81 in 10.0 mi ENE 8.1 mph - N/A   Overcast
4:35 PM 45.5 °F 42.5 °F 34.3 °F 65% 29.82 in 10.0 mi ENE 5.8 mph - N/A   Overcast
4:55 PM 45.1 °F 42.8 °F 33.8 °F 65% 29.82 in 10.0 mi ENE 4.6 mph - N/A   Overcast
5:15 PM 44.8 °F 43.3 °F 33.4 °F 64% 29.83 in 10.0 mi NE 3.5 mph - N/A   Overcast
5:35 PM 44.6 °F - 33.8 °F 66% 29.83 in 10.0 mi Calm Calm - N/A   Overcast
5:55 PM 44.6 °F - 34.0 °F 66% 29.84 in 10.0 mi Calm Calm - N/A   Overcast
6:15 PM 44.2 °F - 34.5 °F 69% 29.84 in 10.0 mi Calm Calm - N/A   Overcast
6:35 PM 43.9 °F - 34.5 °F 70% 29.84 in 10.0 mi Calm Calm - N/A   Overcast
6:55 PM 44.1 °F - 34.5 °F 69% 29.84 in 10.0 mi Calm Calm - N/A   Overcast
7:15 PM 43.9 °F - 34.2 °F 69% 29.86 in 10.0 mi Calm Calm - N/A   Overcast
7:35 PM 43.7 °F - 35.6 °F 73% 29.85 in 10.0 mi Calm Calm - N/A   Overcast
7:55 PM 43.9 °F - 35.2 °F 72% 29.86 in 10.0 mi Calm Calm - N/A   Overcast
8:15 PM 42.8 °F - 36.3 °F 78% 29.87 in 10.0 mi Calm Calm - N/A   Overcast
8:35 PM 42.8 °F - 36.7 °F 79% 29.87 in 10.0 mi Calm Calm - N/A   Overcast
8:55 PM 42.3 °F - 37.0 °F 82% 29.86 in 10.0 mi Calm Calm - N/A   Overcast
9:15 PM 43.0 °F - 35.4 °F 75% 29.87 in 10.0 mi Calm Calm - N/A   Overcast
9:35 PM 44.8 °F 43.3 °F 35.6 °F 70% 29.87 in 10.0 mi SSW 3.5 mph - N/A   Overcast
9:55 PM 44.6 °F - 37.0 °F 75% 29.87 in 10.0 mi Calm Calm - N/A   Overcast
10:15 PM 44.4 °F 42.0 °F 34.7 °F 69% 29.87 in 10.0 mi NW 4.6 mph - N/A   Overcast
10:35 PM 45.0 °F 43.5 °F 32.9 °F 63% 29.87 in 10.0 mi NNW 3.5 mph - N/A   Overcast
10:55 PM 44.8 °F 41.6 °F 33.1 °F 64% 29.87 in 10.0 mi NW 5.8 mph - N/A   Overcast
11:15 PM 44.6 °F 41.4 °F 31.8 °F 61% 29.87 in 10.0 mi NNW 5.8 mph - N/A   Overcast
11:35 PM 44.6 °F 40.7 °F 32.0 °F 61% 29.86 in 10.0 mi NNW 6.9 mph - N/A   Overcast
11:55 PM 44.6 °F 42.2 °F 31.8 °F 61% 29.87 in 10.0 mi NNW 4.6 mph - N/A   Overcast